Hourly Data Report for January 12, 2005

SHERBROOKE A
QUEBEC

45°26'00.000" N
71°41'00.000" W
241.40 m
7028124
71610
YSC

Download Data

Hourly Data (January 2005)
Hourly Data Report for January 12, 2005
TIME
LST
Temp Definition
°C
Dew Point Definition
°C
Rel Hum Definition
%
Precip. Amount Definition
mm

Wind Dir Definition
10's deg

Wind Spd Definition
km/h
Visibility Definition
km
Stn Press Definition
kPa
Hmdx Definition


Wind Chill Definition


Weather Definition


00:00 -17.9 -21.0 77   8 7 15.0 99.89   -23  
01:00 -17.4 -20.8 75   9 9 15.0 99.88   -24  
02:00 -18.3 -21.4 77   8 11 15.0 99.86   -26  
03:00 -18.4 -21.5 77   8 13 15.0 99.81   -26  
04:00 -18.1 -21.6 74   8 13 15.0 99.77   -26  
05:00 -16.9 -20.9 71   7 13 15.0 99.81   -25  
06:00 -16.0 -20.2 70   6 13 15.0 99.87   -24  
07:00 -15.2 -19.7 68   9 11 15.0 99.84   -22  
08:00 -14.1 -18.5 69   4 7 19.3 99.79   -19 Cloudy
09:00 -12.9 -17.5 68   7 6 19.3 99.76   -17 Cloudy
10:00 -9.8 -15.2 65   9 7 19.3 99.74   -14 Cloudy
11:00 -6.1 -12.4 61   12 9 19.3 99.68   -10 Cloudy
12:00 -4.2 -10.7 60   14 20 19.3 99.62   -11 Cloudy
13:00 -3.6 -9.7 63   14 19 19.3 99.53   -10 Cloudy
14:00 -4.6 -10.2 65   10 7 16.1 99.51   -8 Snow
15:00 -4.7 -7.3 82   11 9 6.4 99.49   -9 Snow
16:00 -4.7 -6.7 86   7 7 6.4 99.45   -8 Snow
17:00 -3.3 -6.7 77   12 13 16.1 99.38   -8 Cloudy
18:00 -2.3 -6.3 74   14 20 15.0 99.34   -8 Snow
19:00 -2.1 -5.8 76   14 20 15.0 99.32   -8 Snow
20:00 -2.1 -5.8 76   14 22 15.0 99.32   -8 Snow
21:00 -2.1 -6.0 75   14 17 15.0 99.27   -7  
22:00 -1.9 -5.9 74   14 15 15.0 99.24   -7  
23:00 -1.3 -5.4 74   15 19 15.0 99.22   -7  

Notes on Data Quality.

Legend

  • E = Estimated
  • M = Missing
  • NA = Not Available*
  • [empty] = Indicates an unobserved value
Date modified: